Zurück zum Katalog

STARLINK-11716

AktivKommunikationVLEO
NORAD 64133·PAYLOAD·🇺🇸 United States

Gestartet May 24, 2025 von Cape Canaveral Space Force Station

Loading…

Nächste Überflüge (nächste 24 Stunden)

TLE

AktuellSource: CelesTrak SupGP

Epoche: Sep 15, 2026, 04:01 UTC

1 64133C 25111L   26258.16784722 -.00020116  00000+0 -15613-3 0  2585
2 64133  43.0003 271.9763 0001325 258.2965 201.1923 15.70865045    12

Verfolge STARLINK-11716 in Echtzeit mit AllMySat

Download on the App Store